SCP
0 0 0 0 0 0 0 0 0 0 0 0 0 0 0 0 0 0 0 0 0 0 0 0 0 0 0 0 0 0 0 0 0 0 0 0 0 0 0 0 0 0 0 0
0 0 0 0 0 0 0 0 0 0 0 0 0 0 0 0 0 0 0 0 0 0 0 0 0 0 0 0 0 0 0 0 0 0 0 0 0 0 0 0 0 0 0 0
0 0 0 0 0 0 0 0 0 0 0 0 0 0 0 0 0 0 0 0 0 0 0 0 0 0 0 0 0 0 0 0 0 0 0 0 0 0 0 0 0 0 0 0
0 0 0 0 0 0 0 0 0 0 0 0 0 0 0 0 0 0 0 0 0 0 0 0 0 0 0 0 0 0 0 0 0 0 0 0 0 0 0 0 0 0 0 0
0 0 0 0 0 0 0 0 0 0 0 0 0 0 0 0 0 0 0 0 0 0 0 0 0 0 0 0 0 0 0 0 0 0 0 0 0 0 0 0 0 0 0 0
0 0 0 0 0 0 0 0 0 0 0 0 0 0 0 0 0 0 0 0 0 0 0 0 0 0 0 0 0 0 0 0 0 0 0 0 0 0 0 0 0 0 0 0
0 0 0 0 0 0 0 0 0 0 0 0 0 0 0 0 0 0 0 0 0 0 0 0 0 0 0 0 0 0 0 0 0 0 0 0 0 0 0 0 0 0 0 0
0 0 0 0 0 0 0 0 0 0 0 0 0 0 0 0 0 0 0 0 0 0 0 0 0 0 0 0 0 0 0 0 0 0 0 0 0 0 0 0 0 0 0 0
0 0 0 0 0 0 0 0 0 0 0 0 0 0 0 0 0 0 0 0 0 0 0 0 0 0 0 0 0 0 0 0 0 0 0 0 0 0 0 0 0 0 0 0
0 0 0 0 0 0 0 0 0 0 0 0 0 0 0 0 0 0 0 0 0 0 0 0 0 0 0 0 0 0 0 0 0 0 0 0 0 0 0 0 0 0 0 0
0 0 0 0 0 0 0 0 0 0 0 0 0 0 0 0 0 0 0 0 0 0 0 0 0 0 0 0 0 0 0 0 0 0 0 0 0 0 0 0 0 0 0 0
0 0 0 0 0 0 0 0 0 0 0 0 0 0 0 0 0 0 0 0 0 0 0 0 0 0 0 0 0 0 0 0 0 0 0 0 0 0 0 0 0 0 0 0
0 0 0 0 0 0 0 0 0 0 0 0 0 0 0 0 0 0 0 0 0 0 0 0 0 0 0 0 0 0 0 0 0 0 0 0 0 0 0 0 0 0 0 0
0 0 0 0 0 0 0 0 0 0 0 0 0 0 0 0 0 0 0 0 0 0 0 0 0 0 0 0 0 0 0 0 0 0 0 0 0 0 0 0 0 0 0 0
0 0 0 0 0 0 0 0 0 0 0 0 0 0 0 0 0 0 0 0 0 0 0 0 0 0 0 0 0 0 0 0 0 0 0 0 0 0 0 0 0 0 0 0
0 0 0 -0 -0 -0 0 0 0 0 0 0 0 0 0 0 0 0 0 0 0 0 0 0 0 0 0 0 0 0 0 0 0 0 0 0 0 0 0 0 0 0 0 0
0 0 0 0 0 0 0 0 0 0 0 0 0 0 0 0 0 0 0 0 0 0 0 0 0 0 0 0 0 0 0 0 0 0 0 0 0 0 0 0 0 0 0 0
0 0 0 0 0 0 0 0 0 0 0 0 0 0 0 0 0 0 0 0 0 0 0 0 0 0 0 0 0 0 0 0 0 0 0 0 0 0 0 0 0 0 0 0
0 0 0 0 0 0 0 0 0 0 0 0 0 0 0 0 0 0 0 0 0 0 0 0 0 0 0 0 0 0 0 0 0 0 0 0 0 0 0 0 0 0 0 0
0 0 0 0 0 0 0 0 0 0 0 0 0 0 0 0 0 0 0 0 0 0 0 0 0 0 0 0 0 0 0 0 0 0 0 0 0 0 0 0 0 0 0 0
0 0 0 0 0 0 0 0 0 0 0 0 0 0 0 0 0 0 0 0 0 0 0 0 0 0 0 0 0 0 0 0 0 0 0 0 0 0 0 0 0 0 0 0
0 0 0 0 0 0 0 0 0 0 0 0 0 0 0 0 0 0 0 0 0 0 0 0 0 0 0 0 0 0 0 0 0 0 0 0 0 0 0 0 0 0 0 0
0 0 0 0 0 0 0 0 0 0 0 0 0 0 0 0 0 0 0 0 0 0 0 0 0 0 0 0 0 0 0 0 0 0 0 0 0 0 0 0 0 0 0 0
0 0 0 0 0 0 0 0 0 0 0 0 0 0 0 0 0 0 0 0 0 0 0 0 0 0 0 0 0 0 0 0 0 0 0 0 0 0 0 0 0 0 0 0
0 0 0 0 0 0 0 0 0 0 0 0 0 0 0 0 0 0 0 0 0 0 0 0 0 0 0 0 0 0 0 0 0 0 0 0 0 0 0 0 0 0 0 0
0 0 0 0 0 0 0 0 0 0 0 0 0 0 0 0 0 0 0 0 0 0 0 0 0 0 0 0 0 0 0 0 0 0 0 0 0 0 0 0 0 0 0 0
0 0 0 0 0 0 0 0 0 0 0 0 0 0 0 0 0 0 0 0 0 0 0 0 0 0 0 0 0 0 0 0 0 0 0 0 0 0 0 0 0 0 0 0
Wind_Speed
10 9 6 8 9 10 12 13 13 15 16 17 12 9 8 6 6 6 6 5 5 5 4 4 4 4 4 4 4 4 4 3 3 3 3 3 3 3 3 3 3 3 3 3
8 8 9 12 14 15 16 16 17 18 20 14 9 7 7 7 6 7 7 6 6 5 5 5 4 4 4 4 4 4 4 4 3 3 3 3 3 3 3 3 3 3 3 3
8 5 7 13 14 16 13 12 12 16 15 9 8 8 8 8 7 7 8 7 6 6 5 5 5 5 4 4 4 4 4 4 4 3 3 3 3 3 4 4 3 3 3 4
5 4 13 6 1 7 10 11 11 12 11 10 10 10 8 7 7 8 8 7 7 6 5 5 5 4 4 4 3 3 4 4 4 4 4 4 4 4 4 4 4 4 4 4
5 8 12 7 4 5 7 9 8 10 11 10 8 8 7 5 6 7 7 6 6 5 4 4 4 4 3 3 3 3 4 4 5 5 5 4 4 4 4 4 4 4 4 4
6 8 10 4 2 1 3 7 4 6 8 6 4 6 4 3 5 5 5 4 4 3 3 3 3 3 3 4 4 4 5 5 5 5 5 5 5 5 4 4 4 4 4 4
10 10 10 2 3 5 6 4 1 3 5 5 6 6 6 5 5 4 4 4 3 3 3 3 3 3 4 4 5 5 5 5 5 5 5 6 5 5 4 4 4 4 4 4
7 9 10 4 6 8 4 1 1 3 4 5 6 7 6 6 5 4 4 4 3 3 4 3 3 3 5 5 5 5 5 5 5 5 5 4 5 4 4 4 4 4 4 4
9 8 1 5 5 3 1 3 3 4 4 5 6 6 6 6 5 5 4 4 4 4 4 4 3 3 5 5 4 5 5 5 5 5 5 4 4 4 4 4 3 3 3 3
6 8 5 5 5 5 4 5 5 5 5 5 6 6 6 6 5 5 5 4 3 4 4 4 4 4 5 5 4 4 5 5 4 4 4 4 3 3 3 3 3 3 3 4
8 8 5 5 6 6 6 5 5 5 5 5 6 6 6 6 5 5 4 4 3 4 4 5 5 5 5 4 4 5 5 4 4 4 4 3 3 3 4 4 4 4 4 4
8 5 5 5 3 4 5 6 6 6 6 5 5 6 6 5 5 5 4 4 4 4 4 5 5 5 5 4 4 4 4 4 3 3 3 3 3 3 4 5 5 6 7 6
6 5 5 6 5 4 5 6 5 5 6 6 5 5 5 5 4 4 4 4 4 4 5 5 5 5 5 4 4 4 4 4 3 3 3 3 3 3 3 3 4 5 6 6
5 4 5 5 5 5 5 5 5 5 5 5 4 4 4 4 4 4 4 4 4 4 5 5 5 5 5 4 3 3 4 4 3 3 3 3 3 3 3 3 3 3 4 5
5 5 6 5 5 5 4 4 4 4 4 4 3 3 4 4 4 4 4 4 4 4 4 4 5 6 5 4 3 3 3 3 3 3 3 3 3 3 3 3 3 3 3 3
4 4 5 5 6 5 5 4 5 5 5 4 4 4 3 3 4 4 3 3 3 4 4 5 5 5 4 3 3 3 3 4 4 3 2 2 2 2 3 3 3 3 3 3
4 4 4 5 6 6 5 5 5 5 5 4 4 3 3 3 3 3 3 3 3 4 4 4 5 5 4 3 3 2 2 3 4 3 2 2 2 3 3 3 3 3 3 3
6 6 6 6 6 6 6 5 4 4 4 3 3 2 2 2 3 4 4 3 3 4 4 4 4 5 4 3 3 2 2 2 2 2 2 2 2 2 3 3 3 3 3 3
4 4 4 4 4 4 4 4 3 3 3 2 2 2 3 3 3 3 2 2 3 4 5 4 6 4 4 4 3 2 2 2 2 2 2 3 3 2 2 3 3 3 3 2
2 2 2 2 2 2 2 2 2 2 2 2 2 2 2 3 2 2 2 3 3 3 4 5 4 4 4 4 4 2 2 2 2 2 2 3 3 3 2 3 3 3 3 3
2 1 1 1 1 1 1 1 1 2 2 1 2 2 2 3 2 2 2 3 3 4 4 5 4 3 3 3 3 2 2 2 3 3 3 3 3 3 3 3 3 3 3 3
1 1 1 1 1 1 1 1 1 1 1 1 1 2 2 2 2 2 2 3 4 5 4 3 3 4 4 3 2 2 2 3 3 3 3 3 3 3 3 3 3 3 3 3
1 1 1 1 1 1 1 1 1 1 1 1 2 2 2 2 2 2 3 3 3 5 4 3 5 6 5 3 2 2 3 3 3 3 3 3 3 3 4 4 4 4 4 4
1 1 1 1 0 0 1 2 1 1 1 2 2 2 2 2 2 2 3 5 6 6 4 5 8 7 5 2 2 3 3 3 3 3 4 4 4 3 4 4 4 4 4 5
0 0 0 0 0 1 1 1 1 1 1 1 2 2 2 2 2 3 3 4 6 6 4 5 8 7 4 3 3 3 3 4 4 4 4 4 4 4 4 4 4 4 4 5
0 1 1 1 1 1 1 1 1 1 1 2 2 2 2 2 2 3 3 4 5 5 4 3 4 5 3 3 3 4 4 4 5 4 4 4 5 5 5 5 6 5 5 5
0 0 0 0 1 1 1 1 1 2 2 2 3 3 3 2 2 3 3 3 3 3 3 3 3 3 3 3 4 4 4 4 4 4 4 4 5 5 5 6 5 5 5 5
Wind_Direction
259 268 252 245 238 220 220 235 248 262 266 275 283 285 287 286 284 284 287 288 286 287 292 299 308 313 315 313 315 315 312 303 295 294 288 281 278 277 275 271 267 264 251 235
258 256 256 260 251 239 240 245 250 263 269 277 286 282 280 281 279 273 274 278 281 283 287 289 294 302 305 306 308 306 304 299 295 290 283 279 279 277 272 270 268 265 256 243
259 271 271 256 239 229 231 231 234 248 263 286 284 280 278 278 272 269 271 272 274 276 276 281 286 290 291 297 303 303 302 303 294 287 278 275 277 273 269 269 267 261 258 254
262 252 248 258 196 223 230 245 235 249 270 281 285 291 283 273 271 274 276 273 273 273 273 280 285 289 292 297 299 301 304 307 304 296 287 279 272 270 272 271 264 261 260 260
232 252 268 266 209 199 219 258 235 245 267 282 300 289 267 264 269 270 270 271 272 274 274 279 280 287 290 292 294 295 299 302 304 301 289 280 272 269 269 268 265 262 262 260
222 245 257 264 139 157 197 257 228 230 254 272 285 278 297 332 298 286 284 282 281 286 281 276 281 282 278 281 284 285 290 294 295 294 290 277 271 271 268 265 263 261 259 256
231 245 261 259 138 157 211 269 355 226 246 244 241 266 309 316 304 293 290 290 291 284 274 273 277 271 268 271 272 281 288 289 289 289 288 282 273 269 266 262 260 257 257 258
213 230 247 141 158 202 245 357 262 260 253 250 259 278 292 296 292 290 293 295 294 288 286 288 279 267 269 270 279 288 287 285 287 289 288 284 274 269 263 256 251 251 252 258
211 230 307 163 200 229 274 266 274 275 271 260 261 273 284 288 289 285 285 289 292 285 289 293 286 271 271 282 291 288 283 282 286 289 286 281 275 267 256 248 245 248 250 255
246 256 255 235 249 260 262 267 280 281 278 263 261 272 280 283 285 287 286 285 285 284 285 290 293 285 279 290 288 277 276 280 282 282 284 281 274 266 255 246 242 242 248 255
248 267 280 248 242 254 262 268 274 278 275 268 264 272 275 278 280 283 287 289 282 275 279 287 295 291 291 292 285 276 275 276 280 278 280 281 277 270 264 257 252 248 250 252
246 242 244 268 284 267 259 263 269 276 282 279 267 270 279 279 279 281 283 286 287 287 288 293 297 295 296 290 279 273 274 278 278 279 279 278 279 282 276 271 274 265 265 265
255 276 269 276 282 276 268 275 275 270 271 278 277 272 275 280 284 285 284 285 285 288 291 295 296 296 299 293 279 268 269 275 274 274 274 275 277 278 285 285 277 275 273 272
254 267 270 266 272 282 279 280 279 276 273 270 274 277 278 283 287 284 284 289 293 294 294 295 295 296 301 293 281 274 273 276 277 272 273 274 276 280 282 284 293 298 299 293
265 258 261 278 284 286 288 286 282 283 287 288 284 279 280 282 285 289 295 300 300 297 297 298 297 300 308 297 283 279 277 277 276 276 275 275 278 281 283 281 283 292 299 303
276 273 263 265 273 281 285 281 277 281 287 289 289 288 287 287 291 298 302 297 294 295 299 299 296 302 307 295 284 280 277 286 289 284 282 281 280 278 279 280 282 287 291 297
247 262 263 270 271 274 271 269 268 274 280 280 283 291 294 296 302 306 310 308 298 296 299 296 298 306 303 293 285 286 289 291 290 287 285 284 281 277 276 276 278 282 290 297
248 256 256 260 263 267 271 271 270 271 272 277 285 284 279 277 286 296 305 312 314 311 306 302 302 304 302 299 290 288 289 293 290 286 286 285 285 281 278 277 281 284 295 306
260 258 260 261 263 261 265 268 267 266 270 267 265 270 276 275 279 289 301 307 303 304 311 313 311 312 305 301 298 288 288 290 292 290 287 290 292 291 290 289 287 288 292 298
283 273 264 270 275 256 260 268 267 269 271 259 255 269 285 292 293 292 289 285 285 294 304 307 307 306 302 296 296 288 286 287 289 294 293 288 288 291 292 294 295 294 291 289
287 287 283 288 298 295 275 264 253 264 279 263 250 264 281 297 298 287 282 294 306 306 303 306 311 307 299 296 292 290 288 289 292 293 293 291 290 291 291 292 293 294 295 294
287 286 289 295 298 307 316 298 260 263 282 285 284 283 287 296 298 294 283 282 299 310 315 309 309 306 311 315 311 305 299 294 290 289 289 289 289 290 293 295 293 293 293 293
274 268 270 278 285 307 336 337 314 286 278 285 285 283 285 289 289 285 295 304 308 312 317 309 311 317 327 334 317 306 301 297 293 289 287 288 288 288 289 290 291 292 293 292
262 265 279 303 33 337 328 331 333 319 301 296 290 284 285 291 294 288 289 305 314 316 315 310 317 325 335 330 313 302 295 290 288 285 284 283 282 282 283 284 286 286 286 287
238 231 213 191 233 268 293 317 325 319 319 318 318 316 304 288 282 296 303 305 309 315 312 314 321 326 328 310 300 293 290 285 284 284 281 281 282 282 281 280 279 280 281 280
212 238 248 260 268 273 277 279 289 299 305 309 317 320 318 309 300 298 299 303 304 311 314 310 311 313 307 300 294 291 288 291 294 292 285 282 279 277 276 276 278 275 276 275
170 252 289 313 319 292 278 273 275 284 288 289 298 303 308 311 310 310 308 307 308 308 306 307 309 305 300 296 292 289 287 285 284 283 282 278 276 275 275 273 273 273 273 272